GALAXY 28 (G-28) (28702 NORAD) Tracking and Keplerian Element Data

This shows tracking and keplerian element data for the satellite.

Feedback or suggestion? Click here.




ElementValue
Catalog28702
NameGALAXY 28 (G-28)
Epoch Orbit4698
Epoch Day34.5944511
Epoch Year2025
RAAN85.2032
Inclination2.0105
Eccentricity0.0006099
Argument of Perigee204.2966
Mean Anonmoly329.5057
Mean Motion1.0027154
Decay Rate-1.81E-06
L11 28702U 05022A 25034.59445110 -.00000181 00000+0 00000+0 0 9990
L22 28702 2.0105 85.2032 0006099 204.2966 329.5057 1.00271540 46980



Live tracking and technical data element details for GALAXY 28 (G-28) (NORAD 28702). GALAXY 28 (G-28) can be tracked NOW for your location showing map with azimuth and elevation plus other details from your city location.







IsCatalogInMostPopularTable: catalog: 28702, numindb: 331
Update: records affected: 1



GetName: 28702 GALAXY 28 (G-28)

Hit Count: updated at: Sat, 17 May 2025 09:22:03 GMT